Regional Weather Roundup
Issued by NWS

Home | Current Version | Previous Version | Text Only | Print | Product List | Glossary On
Versions: 1 2 3 4 5 6 7 8 9 10 11 12 13 14 15 16 17 18 19 20 21 22 23 24 25 26 27
000
ASUS42 KTBW 261317
RWRFL
FLORIDA REGIONAL WEATHER ROUNDUP
NATIONAL WEATHER SERVICE TAMPA BAY RUSKIN FL
900 AM EDT TUE SEP 26 2017

NOTE: "FAIR" INDICATES FEW OR NO CLOUDS BELOW 12,000 FEET WITH NO
SIGNIFICANT WEATHER AND/OR OBSTRUCTIONS TO VISIBILITY.

FLZ001>010-012>015-112-114-115-261400-
PANHANDLE FLORIDA

CITY           SKY/WX    TMP DP  RH WIND       PRES   REMARKS
PENSACOLA      SUNNY     79  73  82 NE5       29.94S
PENSACOLA NAS  MOSUNNY   76  74  93 NE5       29.93S
MILTON NAS     MOSUNNY   75  72  90 CALM      29.95
CRESTVIEW      SUNNY     74  69  85 CALM      29.96S
DUKE FIELD     FAIR      73  71  96 CALM      29.94F
VALPARAISO     MOSUNNY   76  70  81 N5        29.93S
MARY ESTHER    SUNNY     74  73  96 N3        29.93S
PANAMA CITY    FAIR      76  72  87 N5        29.93R
TYNDALL AFB    SUNNY     76  75  99 NE3       29.94R
APALACHICOLA   SUNNY     77  76  96 N5        29.93R

STATION/POSITION SKY/WX   TEMP    WIND        PRES    WAVE   SWELL
                          AIR SEA DIR/SP/G            HT/PER HT/PER
                          (F)     (DEG/KT/KT) (MB)    (FT/S) (FT/S)
30.1N   87.6W              81 82   90/  4/  4 1013.3R   1/ 5
29.2N   88.2W              82 83  170/  2/  4 1013.2R   2/ 6   2/ 6
28.8N   86.0W              80 82   CALM  /  2 1012.6    1/ 4
PANAMA CITY BEAC           74      20/  5/  6 1014.1R
TOWER C                    80      30/  8/  9 1013.7R
28.5N   84.5W              80 82   10/  6/  8 1012.6    1

$$
FLZ011-016>038-118-127-128-134-139-239-261400-
NORTH FLORIDA

CITY           SKY/WX    TMP DP  RH WIND       PRES   REMARKS
MARIANNA       SUNNY     72  68  87 NE5       29.95R
TALLAHASSEE    SUNNY     75  69  81 CALM      29.94R
PERRY          SUNNY     76  71  85 CALM      29.95R
LIVE OAK       SUNNY     75  75 100 CALM      29.95S
CROSS CITY     SUNNY     75  71  87 CALM      29.98S
LAKE CITY      FAIR      66  66 100 CALM      29.94S
GAINESVILLE    SUNNY     76  71  85 CALM      29.96R
WILLISTON      SUNNY     75  75 100 CALM      29.94R
PALATKA        FAIR      73  73 100 CALM      29.94R FOG
MAYPORT NAS    MOSUNNY   76  74  93 W7        29.93R
JACKSONVILLE   PTSUNNY   74  73  97 NW5       29.93R
JAX NAS        MOSUNNY   76  71  85 NW6       29.94R
JAX CECIL      SUNNY     73  73 100 VRB3      29.94R
FERNANDINA BEA FAIR      73  72  94 MISG      29.92R
ST AUGUSTINE   SUNNY     76  73  91 W6        29.94R
PALM COAST     SUNNY    N/A N/A N/A CALM      29.93R

STATION/POSITION SKY/WX   TEMP    WIND        PRES    WAVE   SWELL
                          AIR SEA DIR/SP/G            HT/PER HT/PER
                          (F)     (DEG/KT/KT) (MB)    (FT/S) (FT/S)
SHELL POINT      NOT AVBL
KEATON BEACH               72      70/  6/  7 1012.8R
CEDAR KEY                  79     100/  7/  8 1013.5R
FERNANDINA                 75 82  300/  4/  7 1014.3R
30.7N   81.3W                 81                N/A     3/12   2/12
MAYPORT                    75 82  280/  4/  6 1013.8R
31.4N   80.9W              76 80  330/ 10/ 12 1012.2    4/12   3/12
ST AUGUSTINE               74 81  300/  4/  5 1013.1R

$$
FLZ040-043>046-052-053-057-058-063-144-261400-
INTERIOR CENTRAL FLORIDA

CITY           SKY/WX    TMP DP  RH WIND       PRES   REMARKS
OCALA          SUNNY     76  71  85 CALM      29.95R
THE VILLAGES     N/A     79  73  83 CALM      29.85R
LEESBURG       MOSUNNY   81  73  76 CALM      29.95R
SANFORD        SUNNY     77  73  87 NW5       29.93R
ORLANDO EXEC   SUNNY     79  72  79 N3        29.93R
ORLANDO INTL   MOSUNNY   78  74  87 N6        29.94R
KISSIMMEE      SUNNY     80  72  76 CALM      29.95R
WINTER HAVEN   SUNNY     79  73  82 CALM      29.95R
LAKELAND       SUNNY     79  75  89 CALM      29.95R
BARTOW         SUNNY    N/A N/A N/A MISG        N/A
SEBRING        FAIR      80  74  83 E5        29.94R
OKEECHOBEE     PTSUNNY   77  73  88 CALM      29.93R

$$
FLZ041-047-054-059-064-141-147-261400-
EAST CENTRAL FLORIDA

CITY           SKY/WX    TMP DP  RH WIND       PRES   REMARKS
ORMOND BEACH   SUNNY     73  72  94 CALM      29.93R
DAYTONA BEACH  MOSUNNY   77  73  87 W5        29.93R
DELAND         SUNNY     77  73  88 NW3       29.93R
NEW SMYRNA BEA SUNNY     77  72  83 CALM      29.94R
JFK SPACE CTR  MOSUNNY   78  76  94 NW5       29.92R
TITUSVILLE     MOSUNNY   81  79  94 W5        29.93R
CAPE CANAVERAL MOSUNNY   80  74  84 NW7       29.91R
PATRICK AFB    SUNNY     80  75  84 NW3       29.92R
MELBOURNE      SUNNY     81  75  82 CALM      29.92R
VERO BEACH     PTSUNNY   80  76  87 CALM      29.93R
FT PIERCE      CLOUDY    80  76  87 CALM      29.93R
STUART         CLOUDY    84  79  84 CALM      29.94R HX  96

STATION/POSITION SKY/WX   TEMP    WIND        PRES    WAVE   SWELL
                          AIR SEA DIR/SP/G            HT/PER HT/PER
                          (F)     (DEG/KT/KT) (MB)    (FT/S) (FT/S)
28.5N   80.2W              81 84  310/  8/ 10 1014.0R   7/11   7/11
28.9N   78.5W                     310/ 12/ 16 1011.9R   7/11   7/11
TRIDENT PIER               80 83  310/  5/  6 1014.7R
28.4N   80.5W                 83                N/A     4/13   3/13
27.5N   80.2W                 83                N/A     6/11   5/11

$$
FLZ050-056-061-142-242-148-248-149-249-151-251-155-255-
160-260-261400-
WEST CENTRAL FLORIDA

CITY           SKY/WX    TMP DP  RH WIND       PRES   REMARKS
CRYSTAL RIVER  FAIR      77  72  83 CALM      29.94R
INVERNESS      FAIR      75  75 100 CALM      29.94S
BROOKSVILLE    SUNNY     78  74  87 E3        29.94R
CLEARWATER AIR FAIR      79  72  78 CALM      29.93R
ST PETE CLEARW SUNNY     83  75  77 NE6       29.93R
TAMPA INTL     MOSUNNY   82  73  74 CALM      29.94R
TAMPA EXEC     PTSUNNY   77  73  88 CALM      29.94R
PLANT CITY     SUNNY     79  73  83 CALM      29.96R
MACDILL AFB    SUNNY     81  79  94 E3        29.93R
PETER O KNIGHT PTSUNNY   79  73  83 E3        29.94R
ST PETERSBURG  SUNNY     82  75  79 E5        29.91R
SARASOTA       SUNNY     76  76 100 E6        29.92R
VENICE         FAIR      81  77  89 NE7       29.93R

STATION/POSITION SKY/WX   TEMP    WIND        PRES    WAVE   SWELL
                          AIR SEA DIR/SP/G            HT/PER HT/PER
                          (F)     (DEG/KT/KT) (MB)    (FT/S) (FT/S)
27.3N   84.2W                 83                N/A     1
CLEARWATER BEACH           82 84   CALM  /  2 1013.6R
MIDDLE TAMPA BAY           80     110/  5/  6 1013.6R
VENICE                     78 85   50/  4/  6 1012.8R

$$
FLZ066-069-070-075>078-162-262-165-265-261400-
SOUTHWEST FLORIDA AND KEYS

CITY           SKY/WX    TMP DP  RH WIND       PRES   REMARKS
PUNTA GORDA    CLOUDY    77  76  96 NE3       29.94R FOG
FT MYERS       MOSUNNY   79  77  94 CALM      29.92R
SOUTHWEST INTL PTSUNNY   79  75  87 CALM      29.93R
NAPLES         CLOUDY    79  75  87 CALM      29.93R
IMMOKALEE      FAIR      79  77  94 CALM      29.95R
MARATHON       CLOUDY    83  70  64 NE7       29.92R
KEY WEST NAS   CLOUDY    91  80  70 E5        29.92R HX 109
KEY WEST INTL  CLOUDY    85  77  77 N6        29.92R HX  95

STATION/POSITION SKY/WX   TEMP    WIND        PRES    WAVE   SWELL
                          AIR SEA DIR/SP/G            HT/PER HT/PER
                          (F)     (DEG/KT/KT) (MB)    (FT/S) (FT/S)
NAPLES                        87  130/  2/  6 1013.4R
DRY TORTUGAS               84      20/  2/  3 1012.6R
SAND KEY                   83                 1013.8R
MOLASSES REEF              80 85  360/  8/  9 1012.9R

$$
FLZ067-068-071>074-168-172>174-261400-
SOUTHEAST FLORIDA

CITY           SKY/WX    TMP DP  RH WIND       PRES   REMARKS
W PALM BEACH   CLOUDY    79  75  87 S17G26    29.95R
BOCA RATON     DRIZZLE  N/A N/A N/A SW9G21    29.97R
FT LAUDER-EXEC LGT RAIN  73  72  96 E9        29.96F
FT LAUDERDALE  LGT RAIN  79  74  84 N3        29.95R
POMPANO BEACH  LGT RAIN  73  72  96 SE10      29.95F FOG
PEMBROKE PINES RAIN      75  74  96 N6        29.97R
OPA LOCKA      LGT RAIN  75  74  96 NE7       29.95R
MIAMI          LGT RAIN  77  75  93 VRB7      29.94R
WEST KENDALL   CLOUDY    75  74  96 N8        29.93S
HOMESTEAD      CLOUDY    77  75  94 N9        29.92R

STATION/POSITION SKY/WX   TEMP    WIND        PRES    WAVE   SWELL
                          AIR SEA DIR/SP/G            HT/PER HT/PER
                          (F)     (DEG/KT/KT) (MB)    (FT/S) (FT/S)
PORT EVERGLADES            74      30/  7/ 10 1014.4R
VIRGINIA KEY               76 85  330/  6/ 11 1013.6R
LAKE WORTH                 78 84  190/ 21/ 25 1015.3R
FOWEY ROCKS                79 85  290/ 12/ 13 1013.4R
SETTLEMENT POINT           83     290/  8/  9 1012.6R

$$





USA.gov is the U.S. government's official web portal to all federal, state and local government web resources and services.